Location: Asheville, NC
(35.6000°N, 82.5500°W)
Time: 19:02:25

NO-84 - Pass Details

Date: 15 March 2018
Orbit: 339 x 558 km, 55.0° (Epoch: 15 March)

Event Time Altitude Azimuth Distance (km) Brightness Sun altitude
Exits shadow 05:30:21 20° 18° (NNE) 1,154 ? -27.0°
Maximum altitude 05:31:04 21° 35° (NE) 1,103 ? -26.9°
Drops below altitude 10° 05:33:53 10° 87° (E) 1,587 ? -26.3°
Sets 05:36:16 0° 104° (ESE) 2,407 ? -25.9°
